STARLINK-2581, 48412

Orbit data source: Space-Track

STARLINK-2581, 48412 is a payload satellite owned by SpaceX/Seattle (US) in LEO that was launched on Tue, 04 May 2021 UTC via an FALCON 9 launch vehicle from the Air Force Eastern Test Range (AFETR). Payload-class satellites include a variety of spacecraft equipped with specific instruments for various scientific and technological missions. These include communications satellites like Starlink; space stations such as the ISS; scientific satellites like the Hubble; Earth observation satellites from companies like Planet Labs, Umbra, and HawkEye 360; GPS; miniature CubeSats for education and research; and military/defense satellites.

Loading next visibility...
Identifier
48412, 2021-038BM
Orbit
LEO
Country
Flag of USUS
Related business
Manufacturer
SpaceX/Seattle
Mission
Operational Commercial Communications
Bus & Motor
STARLINK, Unknown motor
Mass
260 kg wet, ~248 kg dry
Launch date (UTC)
2021-05-04 (5 years ago)
Launch vehicle
FALCON 9
Launch site
Air Force Eastern Test Range (AFETR)
Object type
Payload
Rocket body
Debris
Shape & HBR
Box + 1 Pan, 10.1 m
Radar Cross Section
13.562 m², Large (>1 m²)

Expand to show TLE details & history
Last TLE update: 2 days ago

TLE from 2 days ago
0 STARLINK-2581
1 48412U 21038BM  26171.30300397  .00000961  00000-0  42725-4 0  9995
2 48412  53.1603 179.0793 0001495 103.1096 257.0072 15.31702950283665
Epoch: 2026-06-20T07:16Z
TLE epoch observation values (Epoch: 2026-06-20T07:16:19.543Z)
Latitude
-0.00002°
Longitude
161.47829°
Altitude
471.862 km
Speed
7.631 km/s
True Right ascension
11h 56m 19s
True Declination
0° 00' 00"
Sunlit
Object was in daylight at epoch
Visualization orbit readout
Latitude
Unknown
Longitude
Unknown
Altitude
Unknown
Speed
Unknown
Apparent Right ascension
Unknown
Apparent Declination
Unknown
Sunlit
N/A
Visualization observer readout
Local Sidereal Time
21:24:42
Azimuth
Unknown
Elevation
Unknown
Doppler factor
Unknown
Orbital elements
Apogee altitude
472.012 km
Perigee altitude
469.964 km
Semi-major axis
6,849.125 km
Eccentricity
0.00015
Inclination
53.1603°
RAAN
179.0793°
Arg. of periapsis
103.1096°
True anomaly
256.99051°
Mean anomaly
257.0072°
Eccentric anomaly
256.99885°
Mean motion
3.82905 °/min
Orbital period
94.02 mins
BSTAR
0.000042725
Loading maneuver chart data...
Computing Atmospheric mass density...

Documentation

Showing up to 5 results
|